[[{"header":{"parameterUnit":"m.s-1","parameterCategory":1,"la1":30.2991,"la2":30.254,"lo1":-89.0895,"lo2":-89.0444,"dy":0.0017,"dx":0.0017,"nx":28,"ny":28,"refTime":"2025-06-16T03:00:00:Z","depth":0,"parameterNumber":2,"parameterNumberName":"U-component_of_WINDS"},"data":[0,0,0,0,0,0,0,0,0,0,0,0,0,0,0,0,0,0,0,0,0,0,0,0,0,0,0,0,0,0,0,0,0,0,0,0,0,0,0,0,0,0,0,0,0,0,0,0,0,0,0,0,0,0,0,0,0,0,0.6049,0.6049,0,0.6002,0.6001,0.6001,0.5924,0.5923,0.5922,0.592,0.5873,0.5873,0.5873,0,0,0,0,0,0,0,0,0,0,0,0,0,0.6074,0.6074,0.6049,0.6049,0.6048,0.6002,0.6001,0.6001,0.5925,0.5923,0.5921,0.592,0.5873,0.5873,0.5873,0,0,0,0,0,0,0,0,0,0,0,0,0,0.6049,0.6074,0.6049,0.6004,0.6,0.6002,0.6001,0.6,0.5925,0.5923,0.5921,0.5919,0.5873,0.5873,0.5873,0.5916,0,0,0.5874,0.5874,0,0,0,0,0,0,0,0,0.605,0.6048,0.6012,0.6008,0.6003,0.5967,0.5993,0.5972,0.5926,0.5954,0.592,0.5918,0.5906,0.5903,0.5899,0.5914,0.5912,0.5874,0.5874,0.5874,0.5874,0,0,0,0,0,0,0,0.6052,0.6049,0.603,0.6011,0.6006,0.5987,0.5981,0.5988,0.5942,0.5951,0.5945,0.5941,0.5903,0.5899,0.5898,0.5911,0.5874,0.5874,0.5874,0.5874,0.5955,0.5957,0,0,0,0,0,0,0.606,0.6051,0.6032,0.6029,0.6022,0.5988,0.5981,0.598,0.5942,0.5934,0.5942,0.5937,0.59,0.5898,0.5896,0.5941,0.5874,0.5874,0.5874,0.5953,0.5955,0.5958,0,0,0,0,0,0,0.6061,0.6059,0.6034,0.6039,0.6034,0.599,0.5989,0.5981,0.5976,0.5935,0.5927,0.5947,0.5898,0.5896,0.5911,0.5938,0.5874,0.5874,0.595,0.5954,0.5957,0.6032,0,0,0,0,0,0,0.6062,0.606,0.6076,0.6039,0.6034,0.605,0.5991,0.5981,0.5977,0.5969,0.5937,0.593,0.5897,0.5911,0.5911,0.5937,0.5874,0.5948,0.5952,0.5956,0.6027,0.6038,0.6047,0,0,0,0,0,0.6063,0.61,0.6077,0.6075,0.6053,0.6052,0.6048,0.6009,0.5979,0.5994,0.5968,0.5931,0.5935,0.5913,0.5912,0.5939,0.5946,0.5951,0.5955,0.6023,0.6036,0.6047,0,0,0,0,0,0,0.6141,0.6094,0.6068,0.6094,0.6077,0.6039,0.6057,0.6024,0.6016,0.6009,0.5961,0.5954,0.5975,0.5959,0.5935,0.5977,0.5935,0.594,0.5987,0.5998,0.6008,0.6011,0.5874,0,0,0,0,0,0.6162,0.6164,0.6123,0.615,0.6143,0.6102,0.61,0.607,0.6051,0.6044,0.6018,0.6001,0.5998,0.5998,0.5993,0.6025,0.6016,0.6043,0.6052,0.6061,0.6065,0.6079,0.6089,0.5973,0.5973,0.5973,0,0,0.6203,0.6178,0.6183,0.6165,0.6148,0.6152,0.6096,0.6103,0.6105,0.6045,0.6057,0.6038,0.6015,0.6039,0.6047,0.6025,0.6095,0.6067,0.6074,0.6073,0.6085,0.6096,0.6105,0.5977,0.5976,0.5975,0,0,0.6281,0.6263,0.6282,0.6266,0.6241,0.6213,0.6218,0.6184,0.6168,0.618,0.6134,0.6136,0.6133,0.6118,0.611,0.6181,0.6146,0.6181,0.6231,0.6245,0.6254,0.6262,0.6286,0.6295,0.6186,0.6186,0.6186,0,0.6336,0.6339,0.6296,0.6305,0.6298,0.6243,0.6261,0.6248,0.6224,0.622,0.6196,0.6189,0.617,0.6188,0.6205,0.6201,0.6204,0.6184,0.6257,0.6264,0.6271,0.6292,0.6302,0.619,0.6189,0.6189,0.6189,0,0.6407,0.6411,0.6429,0.6405,0.64,0.6414,0.6373,0.6373,0.6344,0.6319,0.633,0.6305,0.6294,0.6296,0.6269,0.631,0.6296,0.6265,0.6222,0.6287,0.6306,0.6314,0.6196,0.6194,0.6193,0.6192,0,0,0.6533,0.6484,0.6491,0.6479,0.6447,0.6448,0.646,0.6447,0.6448,0.6433,0.644,0.6438,0.6408,0.6399,0.6369,0.6382,0.6436,0.6348,0.6347,0.6364,0.6478,0.6501,0.6511,0.6414,0.6415,0.6416,0.6479,0,0.6602,0.6618,0.6578,0.6603,0.6605,0.6552,0.6561,0.6543,0.6519,0.6517,0.6491,0.6489,0.6451,0.6445,0.6455,0.6428,0.6459,0.6423,0.6419,0.642,0.6425,0.6522,0.6546,0.6607,0.6487,0.6488,0.6489,0,0.6686,0.6673,0.6698,0.6663,0.6662,0.6671,0.6656,0.6655,0.6632,0.6614,0.6603,0.6568,0.6576,0.6535,0.6545,0.6521,0.6517,0.6504,0.6505,0.6502,0.6457,0.652,0.6625,0.6634,0.6501,0.65,0.6499,0,0.6772,0.6762,0.6774,0.6766,0.6726,0.6733,0.6717,0.6692,0.6687,0.6674,0.667,0.6658,0.6652,0.6644,0.6606,0.658,0.6619,0.6576,0.6604,0.6605,0.6613,0.6613,0.6718,0.6614,0.6614,0.6614,0.6613,0,0.6853,0.6869,0.6812,0.682,0.6837,0.6792,0.681,0.6789,0.6767,0.6769,0.6724,0.6727,0.6678,0.6676,0.6647,0.6658,0.6656,0.6641,0.6633,0.6644,0.6646,0.664,0.6634,0.6616,0.6615,0.6615,0.6615,0,0.6951,0.6914,0.6924,0.6885,0.6876,0.689,0.6856,0.6861,0.6835,0.6838,0.6837,0.6795,0.679,0.6752,0.6739,0.6719,0.674,0.6725,0.6748,0.6742,0.6771,0.6768,0.6875,0.6885,0.6776,0.6778,0.6778,0,0.7004,0.7016,0.6978,0.6975,0.6961,0.6959,0.6952,0.6909,0.6904,0.6878,0.6887,0.6878,0.6868,0.6862,0.6831,0.682,0.6803,0.6841,0.6801,0.6811,0.6801,0.68,0.68,0.6849,0.685,0.6852,0.6853,0,0.7102,0.7082,0.7075,0.7061,0.7055,0.7042,0.7026,0.7027,0.6978,0.6976,0.6969,0.6962,0.6947,0.6939,0.6922,0.6905,0.6871,0.6866,0.6871,0.6882,0.6894,0.6886,0.6769,0.6863,0.6862,0.6861,0.6861,0.686,0.7178,0.7185,0.7158,0.7151,0.7135,0.7121,0.7123,0.7096,0.709,0.7074,0.7049,0.7046,0.7022,0.6996,0.6982,0.6979,0.6959,0.6967,0.6969,0.6971,0.6977,0.6896,0.6976,0.6976,0.6975,0.6975,0.6975,0,0.7271,0.7251,0.7245,0.7224,0.7218,0.7186,0.7166,0.7164,0.7161,0.7142,0.7133,0.7125,0.7116,0.7084,0.7071,0.7075,0.7058,0.7073,0.7071,0.7068,0.6996,0.6992,0.7086,0.7086,0.7086,0.7086,0.7086,0.7086,0.7319,0.7328,0.7305,0.7306,0.7286,0.7282,0.7273,0.726,0.7244,0.7237,0.7229,0.7208,0.7182,0.7168,0.7158,0.7148,0.7145,0.7165,0.715,0.7084,0.7073,0.7063,0.7058,0.7165,0.7165,0.7221,0.7222,0.7222]},{"header":{"parameterUnit":"m.s-1","parameterCategory":1,"la1":30.2991,"la2":30.254,"lo1":-89.0895,"lo2":-89.0444,"dy":0.0017,"dx":0.0017,"nx":28,"ny":28,"refTime":"2025-06-16T03:00:00:Z","depth":0,"parameterNumber":3,"parameterNumberName":"V-component_of_WINDS"},"data":[0,0,0,0,0,0,0,0,0,0,0,0,0,0,0,0,0,0,0,0,0,0,0,0,0,0,0,0,0,0,0,0,0,0,0,0,0,0,0,0,0,0,0,0,0,0,0,0,0,0,0,0,0,0,0,0,0,0,5.1805,5.1807,0,5.1966,5.1967,5.1969,5.1965,5.1963,5.1961,5.1959,5.2123,5.2129,5.2135,0,0,0,0,0,0,0,0,0,0,0,0,0,5.1495,5.1501,5.1805,5.1807,5.1809,5.1965,5.1967,5.197,5.1966,5.1963,5.196,5.1958,5.2121,5.2128,5.2136,0,0,0,0,0,0,0,0,0,0,0,0,0,5.164,5.1503,5.1805,5.1826,5.1829,5.1965,5.1968,5.197,5.1966,5.1963,5.196,5.1957,5.2118,5.2127,5.2137,5.2261,0,0,5.2166,5.217,0,0,0,0,0,0,0,0,5.1632,5.1652,5.1821,5.1825,5.1829,5.1942,5.1918,5.2068,5.1967,5.1914,5.1959,5.1955,5.2065,5.2079,5.2116,5.2269,5.2276,5.2167,5.2173,5.2177,5.218,0,0,0,0,0,0,0,5.1622,5.1645,5.1869,5.1823,5.1828,5.1827,5.1844,5.1947,5.2006,5.1919,5.1919,5.1938,5.2067,5.2107,5.212,5.2279,5.2167,5.2175,5.2181,5.2185,5.2542,5.2545,0,0,0,0,0,0,5.1607,5.1636,5.1863,5.1873,5.172,5.1836,5.1855,5.1909,5.2005,5.2016,5.194,5.1937,5.2092,5.2109,5.2126,5.2277,5.2177,5.2186,5.2191,5.2538,5.2543,5.2547,0,0,0,0,0,0,5.1601,5.1628,5.1857,5.1755,5.1784,5.1844,5.1906,5.1914,5.1954,5.2021,5.2032,5.1971,5.209,5.2112,5.2228,5.2283,5.219,5.2199,5.2534,5.2539,5.2545,5.2581,0,0,0,0,0,0,5.1592,5.1625,5.1673,5.1756,5.179,5.1956,5.1909,5.1919,5.1971,5.1968,5.2052,5.2063,5.2089,5.2213,5.2237,5.2294,5.2206,5.2529,5.2536,5.2543,5.2576,5.2588,5.2598,0,0,0,0,0,5.1581,5.1677,5.1676,5.1703,5.1851,5.1959,5.1979,5.2007,5.1975,5.2024,5.2067,5.2061,5.2274,5.2225,5.2252,5.2313,5.2525,5.2534,5.2542,5.257,5.2585,5.2598,0,0,0,0,0,0,5.1599,5.1688,5.1688,5.1814,5.1879,5.1959,5.202,5.2021,5.2097,5.2091,5.2123,5.2142,5.2257,5.2297,5.2242,5.2439,5.2396,5.241,5.2408,5.2422,5.2433,5.242,5.2214,0,0,0,0,0,5.1618,5.1699,5.1773,5.1877,5.191,5.196,5.2008,5.2024,5.2093,5.212,5.2172,5.2239,5.2321,5.2374,5.2454,5.2582,5.26,5.2637,5.2648,5.2657,5.2669,5.2739,5.2756,5.2574,5.2574,5.2574,0,0,5.1657,5.1716,5.1765,5.1882,5.1934,5.2017,5.1983,5.2072,5.2133,5.2134,5.2246,5.2286,5.2363,5.2486,5.2542,5.2522,5.2723,5.2668,5.2675,5.2681,5.2749,5.2767,5.2782,5.258,5.2579,5.2578,0,0,5.177,5.1824,5.1916,5.1969,5.2049,5.2082,5.2104,5.2185,5.2211,5.2324,5.2326,5.2401,5.2541,5.2596,5.2642,5.2778,5.2774,5.2803,5.286,5.2929,5.2943,5.2956,5.3003,5.302,5.2814,5.2814,5.2814,0,5.1809,5.1934,5.1963,5.2053,5.2104,5.2109,5.2202,5.2253,5.2354,5.239,5.2366,5.2543,5.2595,5.273,5.2763,5.2801,5.2827,5.2792,5.2939,5.2952,5.2964,5.301,5.3027,5.2817,5.2817,5.2816,5.2816,0,5.1976,5.2063,5.2128,5.2226,5.2285,5.2376,5.2419,5.2475,5.2487,5.2522,5.2637,5.27,5.2792,5.2826,5.2838,5.2963,5.2948,5.2932,5.2889,5.2984,5.3027,5.3045,5.2821,5.282,5.2819,5.2818,0,0,5.2104,5.2218,5.2241,5.2285,5.2375,5.2442,5.2534,5.2624,5.2671,5.2742,5.2819,5.2938,5.2924,5.2976,5.2995,5.3055,5.3158,5.3031,5.3034,5.3051,5.3298,5.3309,5.3328,5.3157,5.316,5.3163,5.3291,0,5.2225,5.2387,5.2417,5.2558,5.2638,5.2645,5.2725,5.2788,5.2824,5.2897,5.2937,5.3021,5.2996,5.3028,5.3088,5.3132,5.3207,5.3124,5.3228,5.3232,5.3206,5.3351,5.3362,5.348,5.3308,5.3311,5.3314,0,5.2388,5.2462,5.2611,5.269,5.2725,5.2796,5.2881,5.2951,5.3024,5.3046,5.3105,5.3117,5.3213,5.3167,5.3299,5.3242,5.3287,5.3315,5.332,5.3329,5.3277,5.3362,5.3518,5.3535,5.3341,5.3338,5.3336,0,5.2463,5.2601,5.2708,5.2747,5.2841,5.2891,5.2933,5.3002,5.3055,5.3129,5.3164,5.3249,5.3295,5.3361,5.3396,5.336,5.3525,5.3482,5.3545,5.3544,5.3578,5.3575,5.3741,5.361,5.361,5.361,5.3609,0,5.2594,5.2685,5.2743,5.2809,5.2911,5.2945,5.3045,5.3086,5.3148,5.3221,5.3234,5.3303,5.3345,5.3421,5.3449,5.3554,5.3575,5.3595,5.3601,5.3593,5.359,5.3621,5.3613,5.3614,5.3613,5.3612,5.3612,0,5.2695,5.2738,5.2855,5.2935,5.2958,5.3029,5.3098,5.3162,5.3199,5.3292,5.3316,5.3374,5.3463,5.3505,5.3616,5.3635,5.3754,5.3755,5.3729,5.3731,5.3791,5.3784,5.3981,5.4008,5.3861,5.3862,5.3863,0,5.2774,5.2844,5.2933,5.2983,5.3026,5.3107,5.316,5.3197,5.3252,5.3341,5.3394,5.3484,5.3558,5.3701,5.3753,5.3838,5.3841,5.3904,5.3853,5.3843,5.384,5.3834,5.3841,5.3912,5.3914,5.3915,5.3916,0,5.2911,5.2929,5.3005,5.309,5.3153,5.3222,5.3289,5.333,5.3377,5.3439,5.3531,5.3588,5.3702,5.3791,5.388,5.3923,5.3928,5.3932,5.3951,5.3942,5.3923,5.3933,5.3752,5.3927,5.3925,5.3925,5.3924,5.3924,5.3002,5.3064,5.3136,5.3221,5.3276,5.3338,5.3402,5.3447,5.3524,5.3619,5.3637,5.3734,5.3806,5.3926,5.3973,5.405,5.4035,5.4063,5.4069,5.4075,5.4077,5.3913,5.4066,5.4066,5.4066,5.4066,5.4066,0,5.3138,5.3184,5.3262,5.3356,5.3423,5.3422,5.3497,5.3553,5.3638,5.3705,5.3777,5.3883,5.397,5.4029,5.4118,5.4168,5.4172,5.419,5.4185,5.4195,5.4086,5.406,5.4185,5.4185,5.4185,5.4185,5.4185,5.4185,5.3216,5.332,5.3347,5.3479,5.3526,5.3621,5.3664,5.3722,5.3775,5.3892,5.3964,5.4003,5.4067,5.416,5.424,5.4255,5.4287,5.4305,5.4319,5.4216,5.4203,5.4191,5.4167,5.4311,5.4312,5.4422,5.4423,5.4423]}]]